Jefferson, NC

8:56 AM EDT on August 20, 2019 (GMT -0400)
Ashe County

Weather History for KGEV - June, 2019

Change the Weather History Date:

Friday, June 7, 2019

  Actual Average Record
Temperature  
Mean Temperature 63 °F -  
Max Temperature 65 °F 74 °F 91 °F (2008)
Min Temperature 61 °F 52 °F 39 °F (1976)
Degree Days  
Heating Degree Days 2    
Growing Degree Days 13 (Base 50)    
Moisture  
Dew Point 63 °F    
Average Humidity 99    
Maximum Humidity 100    
Minimum Humidity 94    
Precipitation  
Precipitation 0.26 in - - ()
Sea Level Pressure  
Sea Level Pressure 29.94 in    
Wind  
Wind Speed 1 mph (ESE)    
Max Wind Speed 10 mph    
Max Gust Speed -    
Visibility 4 miles    
Events Fog , Rain , Thunderstorm    
Averages and records for this station are not official NWS values.
T = Trace of Precipitation, MM = Missing Value Source: NWS Daily Summary

Daily Weather History Graph

Daily Weather History Graph

Search for Another Location

Airport or City:

Astronomy

Jun. 07, 2019 Rise Set
Actual Time 6:07 AM EDT 8:41 PM EDT
Civil Twilight 5:37 AM EDT 9:11 PM EDT
Nautical Twilight 5:00 AM EDT 9:49 PM EDT
Astronomical Twilight 4:18 AM EDT 10:31 PM EDT
Moon 10:21 AM EDT (6/7) No Moon Set
Length of Visible Light 15h 34m
Length of Day
14h 33m
Waxing Crescent, 22% of the Moon is Illuminated
Jun 7
Waxing Crescent
Jun 10
First Quarter
Jun 17
Full
Jun 25
Last Quarter
Jul 2
New

Hourly Weather History & Observations

Time (EDT) Temp. Dew Point Humidity Pressure Visibility Wind Dir Wind Speed Gust Speed Precip Events Conditions
12:05 AM 63.0 °F 63.0 °F 100% 29.98 in 0.5 mi Calm Calm - N/A Rain Light Rain
12:25 AM 63.0 °F 63.0 °F 100% 29.98 in 0.5 mi Calm Calm - N/A Rain Light Rain
12:45 AM 63.1 °F 63.1 °F 100% 29.98 in 0.2 mi Calm Calm - N/A Rain Light Rain
1:05 AM 62.6 °F 62.6 °F 100% 29.97 in 4.0 mi Calm Calm - N/A Rain Light Rain
1:25 AM 62.6 °F 62.6 °F 100% 29.97 in 3.0 mi Calm Calm - 0.01 in   Drizzle
1:45 AM 62.6 °F 62.6 °F 100% 29.96 in 3.0 mi Calm Calm - 0.01 in Rain Rain
2:05 AM 62.1 °F 62.1 °F 100% 29.95 in 3.0 mi Calm Calm - N/A Rain Light Rain
2:25 AM 62.1 °F 62.1 °F 100% 29.95 in 7.0 mi Calm Calm - 0.01 in Rain Light Rain
2:45 AM 61.7 °F 61.7 °F 100% 29.95 in 2.5 mi Calm Calm - 0.01 in   Light Drizzle
3:05 AM 61.9 °F 61.9 °F 100% 29.94 in 1.0 mi Calm Calm - N/A   Light Drizzle
3:25 AM 61.7 °F 61.7 °F 100% 29.94 in 0.8 mi Calm Calm - N/A   Light Drizzle
3:45 AM 61.7 °F 61.7 °F 100% 29.93 in 0.5 mi Calm Calm - 0.01 in Rain Light Rain
4:05 AM 61.9 °F 61.9 °F 100% 29.93 in 0.2 mi Calm Calm - N/A   Light Drizzle
4:25 AM 61.9 °F 61.9 °F 100% 29.93 in 0.2 mi Calm Calm - N/A Fog Fog
4:45 AM 61.9 °F 61.9 °F 100% 29.93 in 0.2 mi Calm Calm - N/A Fog Fog
5:05 AM 61.9 °F 61.9 °F 100% 29.93 in 0.2 mi Calm Calm - N/A Fog Fog
5:25 AM 61.7 °F 61.7 °F 100% 29.92 in 0.2 mi Calm Calm - N/A Fog Fog
5:45 AM 61.7 °F 61.7 °F 100% 29.93 in 0.8 mi Calm Calm - N/A   Overcast
6:05 AM 61.7 °F 61.7 °F 100% 29.93 in 0.2 mi Calm Calm - N/A Fog Fog
6:25 AM 61.9 °F 61.9 °F 100% 29.94 in 0.8 mi Calm Calm - N/A   Overcast
6:45 AM 61.7 °F 61.7 °F 100% 29.95 in 0.2 mi Calm Calm - N/A Fog Fog
7:05 AM 61.9 °F 61.9 °F 100% 29.94 in 0.2 mi Calm Calm - N/A Fog Fog
7:25 AM 62.1 °F 62.1 °F 100% 29.93 in 0.2 mi Calm Calm - N/A Fog Fog
7:45 AM 62.2 °F 62.2 °F 100% 29.95 in 0.2 mi Calm Calm - N/A Fog Fog
8:05 AM 62.6 °F 62.6 °F 100% 29.95 in 0.2 mi Calm Calm - N/A Fog Fog
8:25 AM 62.6 °F 62.6 °F 100% 29.95 in 1.0 mi Calm Calm - N/A   Overcast
8:45 AM 62.8 °F 62.8 °F 100% 29.95 in 3.0 mi Calm Calm - N/A   Overcast
9:05 AM 63.0 °F 63.0 °F 100% 29.95 in 4.0 mi Calm Calm - N/A   Overcast
9:25 AM 63.0 °F 63.0 °F 100% 29.95 in 4.0 mi Calm Calm - N/A   Overcast
9:45 AM 63.5 °F 63.5 °F 100% 29.95 in 3.0 mi ESE 3.5 mph - N/A   Overcast
10:05 AM 63.7 °F 63.7 °F 100% 29.95 in 2.0 mi Calm Calm - N/A   Light Drizzle
10:25 AM 63.5 °F 63.5 °F 100% 29.94 in 3.0 mi Calm Calm - N/A Rain Light Rain
10:45 AM 63.5 °F 63.5 °F 100% 29.94 in 1.2 mi Calm Calm - 0.03 in Rain Heavy Rain
11:05 AM 63.5 °F 63.5 °F 100% 29.95 in 0.5 mi SE 3.5 mph - 0.01 in Rain Light Rain
11:25 AM 63.3 °F 63.3 °F 100% 29.95 in 2.0 mi SE 3.5 mph - 0.02 in   Overcast
12:05 PM 63.7 °F 63.7 °F 100% 29.95 in 1.0 mi Calm Calm - 0.01 in Rain Rain
12:25 PM 63.7 °F 63.7 °F 100% 29.95 in 2.5 mi Calm Calm - 0.02 in Rain Rain
12:45 PM 63.7 °F 63.7 °F 100% 29.95 in 2.5 mi Calm Calm - 0.03 in Rain Light Rain
1:05 PM 63.5 °F 63.5 °F 100% 29.94 in 3.0 mi SE 3.5 mph - 0.01 in Rain Light Rain
1:45 PM 63.7 °F 63.7 °F 100% 29.93 in 3.0 mi Calm Calm - 0.04 in Rain Rain
2:05 PM 64.0 °F 64.0 °F 100% 29.93 in 5.0 mi ESE 3.5 mph - 0.01 in Rain Light Rain
2:25 PM 64.8 °F 64.8 °F 100% 29.93 in 7.0 mi ESE 3.5 mph - 0.01 in Rain Light Rain
2:45 PM 64.6 °F 64.6 °F 100% 29.92 in 10.0 mi ESE 4.6 mph - 0.01 in Rain Light Rain
3:05 PM 65.3 °F 64.9 °F 99% 29.92 in 10.0 mi Calm Calm - N/A   Overcast
3:25 PM 65.3 °F 64.8 °F 98% 29.92 in 10.0 mi SE 3.5 mph - N/A   Overcast
3:45 PM 65.1 °F 64.4 °F 98% 29.91 in 10.0 mi ESE 3.5 mph - N/A   Overcast
4:05 PM 65.3 °F 64.4 °F 97% 29.91 in 10.0 mi East 3.5 mph - N/A   Overcast
4:25 PM 64.9 °F 64.4 °F 98% 29.92 in 10.0 mi Calm Calm - N/A   Overcast
4:45 PM 64.6 °F 64.4 °F 99% 29.91 in 10.0 mi ESE 3.5 mph - N/A   Overcast
5:05 PM 65.3 °F 64.6 °F 98% 29.91 in 10.0 mi SE 3.5 mph - N/A   Overcast
5:25 PM 65.3 °F 64.4 °F 97% 29.91 in 10.0 mi Calm Calm - N/A   Overcast
5:45 PM 65.3 °F 64.4 °F 97% 29.91 in 10.0 mi Calm Calm - N/A   Overcast
6:05 PM 64.9 °F 63.9 °F 96% 29.91 in 10.0 mi East 4.6 mph - N/A   Overcast
6:25 PM 65.5 °F 64.0 °F 95% 29.91 in 10.0 mi ESE 3.5 mph - N/A   Overcast
6:45 PM 65.8 °F 64.2 °F 94% 29.92 in 10.0 mi East 3.5 mph - N/A   Overcast
7:25 PM 64.9 °F 63.7 °F 96% 29.91 in 10.0 mi ESE 4.6 mph - N/A Rain Rain
7:45 PM 64.0 °F 63.5 °F 98% 29.91 in 4.0 mi East 8.1 mph - 0.01 in   Overcast
8:05 PM 63.7 °F 63.5 °F 99% 29.93 in 5.0 mi ESE 3.5 mph - N/A Thunderstorm Drizzle
8:25 PM 63.7 °F 63.7 °F 100% 29.93 in 7.0 mi ESE 3.5 mph - N/A Rain Rain
8:45 PM 63.5 °F 63.5 °F 100% 29.93 in 5.0 mi East 8.1 mph - 0.04 in Rain Heavy Rain
9:05 PM 63.1 °F 63.1 °F 100% 29.92 in 7.0 mi East 5.8 mph - N/A Rain Heavy Rain
9:25 PM 63.3 °F 63.3 °F 100% 29.93 in 4.0 mi East 5.8 mph - 0.02 in   Heavy Drizzle
9:45 PM 63.0 °F 63.0 °F 100% 29.93 in 7.0 mi East 6.9 mph - 0.04 in   Drizzle
10:05 PM 62.6 °F 62.6 °F 100% 29.95 in 5.0 mi ENE 5.8 mph - N/A   Drizzle
10:25 PM 62.6 °F 62.2 °F 99% 29.95 in 10.0 mi ENE 4.6 mph - N/A   Overcast
10:45 PM 62.2 °F 62.2 °F 100% 29.96 in 10.0 mi ENE 4.6 mph - N/A   Overcast
11:05 PM 62.1 °F 62.1 °F 100% 29.97 in 10.0 mi East 10.4 mph - N/A   Overcast
11:25 PM 62.1 °F 61.9 °F 99% 29.97 in 5.0 mi ENE 6.9 mph - 0.01 in Rain Light Rain
11:45 PM 61.9 °F 61.9 °F 100% 29.96 in 5.0 mi East 9.2 mph - 0.01 in   Drizzle